Weather in Khatyrka

Russia / Chukotka Autonomous Okrug     62°03′41″N   175°17′19″E
temp.,
°C
wind,
m/s
gust,
m/s
humid.,
%
clouds,
%
prec.,
mm/h
press.,
hPa
HPBL,
m
17 august, wed
wed1700:00+8e131578100 0.3 10121169
03:00+7e131577100 0.1 10121194
06:00+8e131572100 0.2 10111289
09:00+8e121375100 0.1 10121324
12:00+8e111274100 0.3 10121322
15:00+8e101170100 0.1 10121279
18:00+8e8970100 0.2 10121218
21:00+8e7872100 0.1 1012911
18 august, thu
thu1800:00+8e6775100 0.1 1012691
03:00+8e6675100 0.1 1011669
06:00+8e6673100 0.2 1011753
09:00+8ese5670100 0.1 1011853
12:00+8ese677199 0.1 1011865
15:00+8e777167 0.1 1010927
18:00+8e676728 0.1 1011965
21:00+8e6773100 0.0 1011790
19 august, fri
fri1900:00+8e797799 0.1 1011825
03:00+8ene7976100 0.1 1010839
06:00+7ne7107995 0.3 1011943
09:00+8ene11126498 0.1 10111347
12:00+9ene101166100 0.1 10111153
15:00+9e9106998 0.0 1011726
18:00+8e91172100 0.0 1011769
21:00+8ene8117680 0.0 1013561
20 august, sat
sat2000:00+8n3475100 0.0 1013304
03:00+8n3473100 0.0 1014210
06:00+7n3372100 0.0 1015180
09:00+8nnw226797 0.0 1017353
12:00+9sw126699 0.0 1017362
15:00+10sw4470100 0.0 1017451
18:00+9sw447699 0.0 1017264
21:00+9wsw4484100 0.0 1018148
21 august, sun
sun2100:00+9w2384100 0.0 101889
03:00+9nw1182100 0.0 101820
06:00+9ene3387100 0.0 1019118
09:00+9ene338593 0.0 1019329
12:00+10ese438521 0.0 1019396
15:00+10ese338414 0.0 1019376
18:00+10se33868 0.0 1019274
21:00+9se228969 0.0 102030